Wetbulb
46.57 46.80 47.03 47.24 47.79 48.31 47.96 48.74 50.62 52.28 54.16 55.13 55.65 55.50 55.57 54.93 54.74 54.50 53.58 52.56 52.26 52.20
44.92 45.03 45.09 45.67 46.29 46.70 46.90 48.29 48.42 49.42 49.52 51.47 53.62 54.62 54.48 54.05 53.96 54.08 53.69 53.45 53.22 52.88
44.03 44.84 44.92 44.70 44.20 44.98 46.15 46.71 46.41 46.86 47.66 48.15 48.57 49.70 51.56 53.17 54.04 53.59 53.57 54.16 53.23 52.78
43.24 43.83 44.38 44.39 44.49 44.32 44.57 45.25 45.72 46.18 46.20 46.34 46.38 47.05 47.31 47.76 49.95 51.05 52.21 53.13 53.85 53.34
42.36 42.28 42.28 42.90 43.83 44.51 43.90 44.65 44.82 45.24 45.35 45.61 45.71 45.38 45.34 45.59 46.58 46.66 47.21 49.16 50.79 52.42
40.34 39.63 39.40 40.42 41.90 42.65 43.31 43.74 44.01 44.24 43.91 44.76 45.10 44.66 44.22 44.55 44.85 45.44 46.12 46.60 47.09 48.10
38.42 38.31 38.53 39.28 39.52 40.03 41.12 41.36 41.46 42.93 43.32 43.49 43.83 44.66 44.55 44.07 43.01 43.59 44.96 46.34 46.92 46.74
38.19 38.39 38.49 38.34 38.45 39.08 39.52 39.88 40.17 40.96 42.01 42.86 43.15 45.91 43.79 43.57 43.16 42.99 43.38 44.48 46.23 46.83
37.99 37.99 37.63 37.78 37.66 37.67 37.93 38.02 38.48 39.17 40.19 40.38 43.34 47.43 47.32 45.89 43.02 43.42 43.43 43.02 44.41 45.91
36.01 35.72 35.83 36.38 36.54 36.21 35.91 36.45 36.49 37.78 38.79 38.98 40.02 45.88 46.03 45.44 42.03 41.32 41.62 42.19 42.27 44.34
34.76 34.73 35.42 35.25 34.92 34.61 34.95 34.98 35.81 36.96 37.99 38.18 41.45 44.16 44.24 43.64 40.84 40.24 40.44 41.15 41.14 41.62
33.77 33.30 33.81 33.37 32.84 33.75 34.03 34.87 36.59 37.36 38.85 37.89 38.21 42.04 42.04 40.63 38.14 38.46 38.34 39.90 40.61 41.49
33.57 34.20 33.68 34.14 34.79 36.26 36.84 36.74 37.42 37.44 36.95 38.19 36.21 39.99 40.75 39.87 36.52 35.55 35.90 37.40 38.77 41.42
34.23 33.56 33.93 34.36 34.97 35.54 35.20 35.22 34.92 35.13 35.31 35.16 36.02 35.93 38.89 39.24 35.70 35.56 35.01 35.98 37.41 38.62
MSLP
1022.06 1021.93 1021.84 1021.76 1021.65 1021.48 1021.28 1021.01 1020.67 1020.36 1019.99 1019.69 1019.43 1019.28 1019.21 1019.34 1019.44 1019.57 1019.65 1019.72 1019.73 1019.79
1022.68 1022.53 1022.43 1022.28 1022.12 1021.94 1021.68 1021.30 1021.05 1020.71 1020.42 1020.04 1019.69 1019.42 1019.25 1019.35 1019.34 1019.34 1019.35 1019.28 1019.27 1019.32
1023.35 1023.15 1022.99 1022.80 1022.58 1022.34 1022.04 1021.66 1021.48 1021.19 1020.77 1020.48 1020.13 1019.80 1019.55 1019.44 1019.31 1019.23 1019.11 1019.01 1018.96 1018.85
1023.91 1023.75 1023.58 1023.39 1023.13 1022.81 1022.43 1022.08 1021.83 1021.57 1021.28 1020.99 1020.72 1020.32 1020.04 1019.81 1019.58 1019.41 1019.14 1018.88 1018.74 1018.62
1024.66 1024.48 1024.30 1024.10 1023.76 1023.23 1022.95 1022.48 1022.13 1021.82 1021.64 1021.39 1021.12 1020.84 1020.57 1020.53 1020.30 1020.01 1019.67 1019.22 1018.89 1018.66
1025.21 1025.15 1024.97 1024.70 1024.42 1023.96 1023.56 1023.09 1022.61 1022.25 1021.99 1021.69 1021.42 1021.21 1021.05 1020.96 1020.85 1020.54 1020.09 1019.61 1019.15 1018.79
1025.64 1025.55 1025.38 1025.14 1024.90 1024.56 1024.09 1023.69 1023.28 1022.82 1022.38 1022.08 1021.75 1021.52 1021.45 1021.33 1021.12 1020.88 1020.45 1019.87 1019.27 1018.81
1025.90 1025.77 1025.62 1025.43 1025.18 1024.94 1024.60 1024.16 1023.63 1023.23 1022.87 1022.47 1022.06 1021.77 1021.58 1021.45 1021.32 1021.06 1020.57 1019.98 1019.39 1018.82
1026.43 1026.25 1025.97 1025.66 1025.30 1025.10 1024.91 1024.51 1024.05 1023.60 1023.19 1022.84 1022.45 1021.84 1021.60 1021.54 1021.46 1021.15 1020.66 1020.08 1019.42 1018.87
1026.93 1026.65 1026.29 1025.87 1025.54 1025.26 1024.97 1024.67 1024.37 1023.89 1023.43 1023.06 1022.65 1022.30 1022.08 1021.85 1021.66 1021.44 1021.04 1020.54 1020.07 1019.47
1027.24 1026.89 1026.51 1026.13 1025.84 1025.56 1025.16 1024.81 1024.38 1023.96 1023.61 1023.22 1022.86 1022.76 1022.48 1022.25 1022.03 1021.64 1021.30 1020.95 1020.54 1020.15
1027.51 1027.27 1026.90 1026.55 1026.28 1025.94 1025.54 1024.99 1024.57 1024.20 1023.95 1023.91 1023.77 1023.31 1022.90 1022.70 1022.45 1022.12 1021.80 1021.30 1020.77 1020.36
1027.71 1027.40 1027.02 1026.77 1026.45 1026.11 1025.68 1025.20 1024.92 1024.76 1024.70 1024.56 1024.33 1023.88 1023.37 1023.28 1022.88 1022.53 1022.13 1021.67 1021.24 1020.82
1027.82 1027.56 1027.27 1027.05 1026.73 1026.49 1025.96 1025.65 1025.42 1025.28 1025.21 1025.00 1024.67 1024.53 1024.13 1023.67 1023.18 1022.82 1022.45 1022.04 1021.74 1021.38
Wind_Speed
8 5 5 5 5 4 4 5 7 7 7 7 7 5 4 3 4 4 4 6 5 4
8 7 6 7 5 4 5 5 7 7 7 7 7 7 6 3 4 4 5 6 6 5
8 8 7 7 7 7 6 7 7 7 7 7 7 7 7 5 5 5 5 4 6 5
7 8 8 7 7 7 7 7 7 7 7 7 7 8 7 8 8 7 6 5 5 6
8 8 9 9 9 8 7 7 7 7 7 6 7 7 7 9 10 10 9 7 7 6
7 7 7 8 10 11 11 9 8 7 7 7 6 6 7 7 9 10 10 8 7 7
7 7 6 7 8 9 9 10 11 10 7 7 7 6 7 6 6 8 10 10 7 7
6 6 6 6 6 7 8 9 8 9 9 8 7 5 5 6 6 7 9 9 10 6
8 9 8 7 6 6 7 7 7 8 7 7 8 15 14 11 7 9 9 9 9 6
9 8 7 7 7 6 6 6 6 7 6 6 6 16 16 16 7 9 11 10 9 10
8 8 9 8 7 7 6 6 6 6 6 6 6 17 18 19 10 8 9 9 10 10
8 9 9 7 7 7 7 6 6 6 9 10 10 19 19 16 9 9 10 10 11 10
7 8 9 8 8 7 7 6 6 8 8 12 10 18 21 15 6 8 8 9 10 18
7 7 6 7 6 6 6 6 6 7 7 8 12 11 17 17 8 7 7 7 8 8
Wind_Direction
37 38 34 27 26 17 17 352 0 351 345 334 327 319 286 246 247 246 249 245 236 236
18 28 33 24 20 14 5 359 359 357 350 349 343 330 321 309 286 270 254 245 240 230
14 11 16 24 16 10 0 4 6 358 356 359 356 352 346 322 300 287 276 260 260 251
14 10 7 11 4 2 360 357 5 1 0 4 358 346 5 359 357 346 326 314 299 289
15 10 6 1 356 354 354 350 351 359 358 4 354 354 24 8 356 353 344 336 339 323
21 10 360 356 356 353 350 346 349 351 350 353 352 4 22 18 358 344 334 332 334 324
14 3 358 357 353 343 343 352 346 340 344 348 346 20 20 6 351 340 329 323 316 314
359 0 356 348 342 340 345 337 334 342 346 345 340 35 10 4 350 327 314 312 313 318
1 357 348 337 335 340 329 326 339 338 335 349 345 339 357 5 344 320 307 301 299 315
352 341 333 332 334 333 321 342 326 315 332 340 325 17 11 360 357 351 353 359 3 1
345 340 340 334 343 343 328 313 303 316 328 330 30 22 15 13 353 341 340 353 353 355
356 347 338 346 342 336 334 325 349 344 26 36 30 22 16 16 355 353 349 347 346 346
335 340 337 348 337 337 337 360 6 40 34 40 29 20 22 11 358 356 350 349 354 355
8 337 360 353 353 347 6 16 26 43 41 37 30 19 15 18 15 8 5 2 8 9